Tracking 17996 objects as of 27-February-2017
HD Live streaming from Space Station
objects crossing your sky now

COSMOS 2278

Track COSMOS 2278 now!
10-day predictions
COSMOS 2278 is classified as:


NORAD ID: 23087
Int'l Code: 1994-023A
Perigee: 847.9 km
Apogee: 859.6 km
Inclination: 71.1 °
Period: 101.9 minutes
Semi major axis: 7224 km
RCS: 13.2242 m2 (large)
Launch date: April 23, 1994
Source: Commonwealth of Independent States (former USSR) (CIS)
Launch site: TYURATAM MISSILE AND SPACE COMPLEX (TTMTR)
Your satellite tracking list
Your tracking list is empty





NASA's NSSDC Master Catalog

Two Line Element Set (TLE):
1 23087U 94023A   17057.04614654 -.00000327  00000-0 -14794-3 0  9990
2 23087  71.0512 231.2659 0008146   7.8603 352.2646 14.13736337178786
Source of the keplerian elements: AFSPC